CDT,Max TemperatureF,Mean TemperatureF,Min TemperatureF,Max Dew PointF,MeanDew PointF,Min DewpointF,Max Humidity, Mean Humidity, Min Humidity, Max Sea Level PressureIn, Mean Sea Level PressureIn, Min Sea Level PressureIn, Max VisibilityMiles, Mean VisibilityMiles, Min VisibilityMiles, Max Wind SpeedMPH, Mean Wind SpeedMPH, Max Gust SpeedMPH,PrecipitationIn, CloudCover, Events, WindDirDegrees
2013-8-1,71,61,51,55,52,46,88,70,49,29.94,29.91,29.82,10,10,10,16,7,21,0.00,2,,275
2013-8-2,69,60,50,54,52,48,94,73,49,30.00,29.89,29.80,10,9,0,15,6,33,0.00,2,Thunderstorm,297
2013-8-3,66,56,46,54,49,43,93,75,52,30.18,30.09,30.01,10,9,1,14,4,18,0.00,0,,307
2013-8-4,69,55,42,54,46,39,93,69,43,30.23,30.17,30.05,10,9,1,8,2,,0.00,1,,340
2013-8-5,66,57,48,61,55,45,94,82,67,30.04,29.89,29.79,10,10,7,12,4,,0.00,6,,199
2013-8-6,73,68,62,61,60,57,94,81,57,29.79,29.75,29.71,10,9,0,12,6,16,0.00,6,,261
2013-8-7,68,59,50,59,50,41,94,71,40,30.00,29.87,29.70,10,9,2,13,5,17,0.00,3,,313
2013-8-8,66,56,46,55,50,43,94,77,63,30.03,30.00,29.95,10,10,1,9,2,,0.00,5,,270
2013-8-9,66,58,51,54,50,46,94,72,49,30.08,29.99,29.93,10,10,10,17,7,25,0.00,4,,276
2013-8-10,69,56,44,55,49,43,94,73,46,30.14,30.11,30.08,10,9,1,10,4,16,0.00,1,,280
2013-8-11,73,60,48,57,51,45,94,71,50,30.09,30.04,29.99,10,10,2,10,2,,0.00,2,,283
2013-8-12,69,58,46,55,50,43,94,74,52,30.08,30.00,29.95,10,9,0,15,4,22,0.00,1,,336
2013-8-13,62,52,41,50,43,37,93,72,45,30.19,30.15,30.08,10,9,1,13,2,,0.00,3,,357
2013-8-14,66,54,42,48,44,39,93,68,40,30.20,30.15,30.08,10,10,5,12,2,16,0.00,3,,318
2013-8-15,73,60,46,55,48,43,93,65,43,30.10,30.08,30.06,10,10,2,12,3,,0.00,1,,286
2013-8-16,77,60,44,57,50,41,93,68,41,30.15,30.13,30.11,10,9,2,10,2,,0.00,0,,262
2013-8-17,78,66,53,55,53,48,88,61,42,30.20,30.15,30.09,10,10,10,17,6,22,0.00,0,,225
2013-8-18,78,69,60,57,53,52,72,57,42,30.15,30.08,30.00,10,10,10,16,9,23,0.00,0,,215
2013-8-19,82,74,66,66,60,54,78,66,54,30.01,29.93,29.89,10,10,10,18,10,23,0.00,1,,222
2013-8-20,86,77,68,68,65,61,83,67,55,29.94,29.89,29.85,10,10,3,17,9,24,0.00,0,,208
2013-8-21,82,70,57,72,66,55,94,77,61,30.02,29.89,29.80,10,9,0,16,9,22,0.00,1,Thunderstorm,248
2013-8-22,73,60,48,55,50,45,94,67,38,30.16,30.11,30.02,10,9,0,9,3,,0.00,0,,336
2013-8-23,78,60,42,59,50,39,93,66,39,30.19,30.14,30.07,10,9,1,12,3,,0.00,0,,177
2013-8-24,80,71,62,66,60,55,77,65,51,30.16,30.07,29.92,10,10,10,23,11,34,0.00,0,,178
2013-8-25,93,84,75,73,70,66,78,65,49,29.97,29.94,29.90,10,10,8,21,14,34,0.00,0,Thunderstorm,219
2013-8-26,86,76,66,73,68,63,94,79,62,30.02,29.95,29.90,10,9,1,31,8,44,0.00,3,Thunderstorm,208
2013-8-27,82,73,64,70,67,63,94,83,66,29.94,29.87,29.81,10,8,0,18,5,,0.00,4,Thunderstorm,5
2013-8-28,82,72,62,70,64,59,94,77,51,30.05,30.01,29.93,10,7,0,6,2,,0.00,2,,109
2013-8-29,80,72,64,70,65,61,94,79,65,30.05,29.97,29.81,10,10,2,18,5,26,0.00,2,Thunderstorm,177
2013-8-30,71,64,57,68,61,55,94,80,68,29.95,29.90,29.80,10,9,0,16,9,26,0.00,5,Thunderstorm,22
2013-8-31,82,66,53,63,58,50,94,73,51,29.94,29.83,29.70,10,8,0,14,3,21,0.00,1,Thunderstorm,200